User: anonymous   Login
Location: Bakov nad Jizerou
(50.4784°N, 14.9394°E)
Time: 15:57:36
(UTC+00:00)
Language:

Cosmos 2322 - Orbit

View from above orbital plane
View from above orbital plane
View from above satellite
View from above satellite

Ground track
Ground track

The orbit data is extracted from the following two-line orbital elements,

1 23704U 95058A   21264.79705242  .00000124  00000-0  91119-4 0  9996
2 23704  70.9864  18.9254 0011463 256.4875 103.4970 14.13431384335729
Epoch (UTC): 21 September 2021 19:07:45
Eccentricity: 0.0011463
inclination: 70.9864°
perigee height: 839 km
apogee height: 856 km
right ascension of ascending node: 18.9254°
argument of perigee: 256.4875°
revolutions per day: 14.13431384
mean anomaly at epoch: 103.4970°
orbit number at epoch: 33572

The dashed part of the orbit path shows where the satellite is in the earth's shadow,  

DLR